Location: Anton
(37.3520°N, 87.3947°W)
Time: 23:44:31
(UTC+00:00)

N. Korean satellite - Pass Details

Date: 05 December 2022
Orbit: 407 x 442 km, 97.3° (Epoch: 05 February)

Event Time Altitude Azimuth Distance (km) Brightness Sun altitude
Rises 12:10:18 0° 347° (NNW) 2,506 9.8 -7.8°
Reaches altitude 10° 12:13:28 10° 315° (NW) 1,613 8.6 -7.2°
Maximum altitude 12:14:48 12° 293° (WNW) 1,494 8.3 -6.9°
Drops below altitude 10° 12:16:07 10° 270° (W) 1,598 8.6 -6.7°
Sets 12:19:13 0° 237° (WSW) 2,449 9.8 -6.1°
